1491429600.99,45040,14.31,73140.3,-3.25,-3.91,-3.91,0,*51
1491429602.22,45041,14.31,73138.3,-3.25,-3.91,-3.91,0,*50
1491429603.48,45042,14.31,73134.5,-3.25,-4.01,-3.91,0,*5D
1491429604.73,45043,14.31,73136.0,-3.25,-4.01,-3.91,0,*5C
1491429605.96,45044,14.31,73136.3,-3.25,-3.87,-3.91,0,*52
1491429607.15,45045,14.31,73136.0,-3.23,-3.87,-3.87,0,*52
1491429608.38,45046,14.31,73138.0,-3.25,-3.91,-3.91,0,*57
1491429609.62,45047,14.31,73138.5,-3.25,-3.91,-3.91,0,*56
1491429610.81,45048,14.31,73134.5,-3.23,-3.87,-3.87,0,*5F
1491429612.04,45049,14.31,73136.5,-3.25,-3.87,-3.91,0,*5F
1491429613.26,45050,14.31,73136.8,-3.25,-3.91,-3.87,0,*57
1491429614.5,45051,14.31,73138.3,-3.25,-3.91,-3.91,0,*51
1491429615.72,45052,14.31,73138.5,-3.23,-4.01,-3.95,0,*5E
1491429616.98,45053,14.31,73138.0,-3.25,-3.91,-4.01,0,*5D
1491429618.26,45054,14.31,73134.8,-3.25,-4.01,-4.01,0,*54
1491429619.45,45055,14.25,73132.0,-3.23,-3.95,-3.87,0,*50
1491429620.68,45056,14.25,73134.3,-3.23,-3.95,-4.01,0,*5A
1491429621.93,45057,14.25,73138.0,-3.25,-3.91,-4.01,0,*59
1491429623.17,45058,14.31,73138.3,-3.25,-3.91,-3.91,0,*58
1491429624.4,45059,14.25,73136.8,-3.25,-3.91,-4.05,0,*53
1491429625.59,45060,14.31,73140.3,-3.23,-3.87,-3.95,0,*56
1491429626.83,45061,14.31,73140.5,-3.25,-3.91,-3.91,0,*52
1491429628.02,45062,14.31,73140.8,-3.23,-3.95,-3.87,0,*54
1491429629.28,45063,14.31,73140.5,-3.25,-4.01,-3.91,0,*5E
1491429630.53,45064,14.31,73144.3,-3.25,-4.01,-3.91,0,*59
1491429631.78,45065,14.31,73142.0,-3.25,-4.05,-4.01,0,*52
1491429633.06,45066,14.31,73142.3,-3.25,-4.01,-4.01,0,*55
1491429634.34,45067,14.31,73136.0,-3.25,-4.01,-4.01,0,*54
1491429635.56,45068,14.31,73142.5,-3.25,-4.05,-4.05,0,*5B
1491429636.81,45069,14.31,73142.8,-3.25,-4.01,-4.05,0,*5E
1491429638.03,45070,14.31,73140.8,-3.25,-4.05,-4.05,0,*52
1491429639.26,45071,14.31,73144.0,-3.23,-4.01,-3.95,0,*5F
1491429640.48,45072,14.31,73140.3,-3.25,-4.05,-4.05,0,*50
1491429641.7,45073,14.31,73142.8,-3.25,-4.05,-4.05,0,*51
1491429642.96,45074,14.31,73138.5,-3.25,-4.01,-4.05,0,*52
1491429644.18,45075,14.31,73142.5,-3.25,-4.05,-4.05,0,*57
1491429645.37,45076,14.31,73138.3,-3.27,-4.09,-4.05,0,*5A
1491429646.59,45077,14.31,73134.0,-3.25,-4.09,-4.05,0,*59
1491429647.81,45078,14.31,73126.3,-3.25,-4.17,-4.05,0,*59
1491429649.01,45079,14.31,73124.5,-3.23,-4.05,-4.05,0,*5D
1491429650.23,45080,14.31,73128.5,-3.25,-4.09,-4.09,0,*5D
1491429651.43,45081,14.31,73132.8,-3.27,-4.13,-4.13,0,*5E
1491429652.63,45082,14.31,73134.5,-3.27,-4.21,-4.13,0,*5C
1491429653.83,45083,14.31,73134.8,-3.27,-4.13,-4.13,0,*5C
1491429655.05,45084,14.31,73130.3,-3.29,-4.13,-4.13,0,*55
1491429656.25,45085,14.31,73126.5,-3.27,-4.09,-4.13,0,*51
1491429657.44,45086,14.31,73126.0,-3.27,-4.09,-4.13,0,*52
1491429658.64,45087,14.31,73122.8,-3.27,-4.05,-4.09,0,*54
1491429659.89,45088,14.31,73132.0,-3.25,-4.01,-4.05,0,*51
1491429661.14,45089,14.31,73140.3,-3.25,-4.01,-4.05,0,*50
1491429662.37,45090,14.31,73140.0,-3.25,-4.05,-4.05,0,*5C
1491429663.59,45091,14.31,73138.8,-3.25,-4.05,-4.05,0,*5D
1491429664.78,45092,14.31,73136.0,-3.27,-4.09,-4.09,0,*5C
1491429666.0,45093,14.31,73134.3,-3.25,-4.05,-4.05,0,*5F
1491429667.2,45094,14.31,73128.8,-3.27,-4.09,-4.09,0,*5A
1491429668.39,45095,14.31,73124.0,-3.27,-4.09,-4.09,0,*5B
1491429669.61,45096,14.31,73124.5,-3.29,-4.09,-4.09,0,*56
1491429670.81,45097,14.31,73130.3,-3.27,-4.09,-4.05,0,*55
1491429672.03,45098,14.31,73132.8,-3.29,-4.05,-4.09,0,*54
1491429673.22,45099,14.31,73134.8,-3.27,-4.09,-4.05,0,*5B
1491429674.42,45100,14.31,73134.0,-3.27,-4.05,-4.05,0,*56
1491429675.61,45101,14.31,73138.3,-3.27,-4.09,-4.05,0,*5B
1491429676.8,45102,14.31,73136.0,-3.27,-4.05,-4.05,0,*54
1491429678.0,45103,14.31,73132.3,-3.27,-4.05,-4.09,0,*59
1491429679.19,45104,14.31,73132.0,-3.27,-4.05,-4.05,0,*52
1491429680.39,45105,14.31,73134.5,-3.27,-4.05,-4.05,0,*53
1491429681.61,45106,14.31,73132.0,-3.29,-4.09,-4.05,0,*52
1491429682.8,45107,14.31,73134.8,-3.27,-4.05,-4.05,0,*51
1491429684.0,45108,14.31,73134.0,-3.27,-4.05,-4.05,0,*5E
1491429685.19,45109,14.31,73132.8,-3.27,-4.09,-4.05,0,*53
1491429686.39,45110,14.31,73134.5,-3.27,-4.05,-4.05,0,*57
1491429687.58,45111,14.31,73134.8,-3.27,-4.05,-3.95,0,*58
1491429688.8,45112,14.31,73134.0,-3.29,-4.05,-3.95,0,*55
1491429689.99,45113,14.31,73134.0,-3.27,-4.09,-3.95,0,*56
1491429691.19,45114,14.31,73134.5,-3.27,-4.09,-4.09,0,*53
1491429692.41,45115,14.31,73134.8,-3.29,-4.09,-4.09,0,*5C
1491429693.6,45116,14.31,73128.8,-3.27,-4.05,-4.09,0,*5D
1491429694.8,45117,14.31,73128.5,-3.27,-4.09,-4.09,0,*50
1491429696.02,45118,14.31,73132.3,-3.29,-4.09,-4.05,0,*5D
1491429697.27,45119,14.31,73132.0,-3.25,-4.05,-4.01,0,*58
1491429698.46,45120,14.31,73134.0,-3.27,-4.09,-4.09,0,*54
1491429699.68,45121,14.31,73128.3,-3.29,-4.09,-4.09,0,*5B
1491429700.9,45122,14.31,73132.0,-3.29,-4.09,-4.05,0,*54
1491429702.1,45123,14.31,73130.8,-3.27,-4.05,-4.05,0,*57
1491429703.29,45124,14.31,73132.5,-3.27,-4.05,-4.05,0,*50
1491429704.51,45125,14.31,73132.5,-3.29,-4.09,-4.05,0,*53
1491429705.7,45126,14.31,73132.5,-3.27,-4.05,-4.05,0,*52
1491429706.93,45127,14.31,73134.3,-3.29,-4.09,-4.09,0,*5D
1491429708.15,45128,14.31,73138.0,-3.29,-4.05,-3.95,0,*5C
1491429709.36,45129,14.31,73134.0,-3.29,-4.05,-3.95,0,*5D
1491429710.56,45130,14.25,73126.5,-3.27,-4.05,-4.05,0,*55
1491429711.76,45131,14.31,73128.5,-3.27,-4.05,-4.05,0,*54
1491429712.95,45132,14.31,73128.8,-3.27,-4.05,-4.05,0,*57
1491429714.17,45133,14.31,73128.0,-3.29,-4.05,-3.95,0,*56
1491429715.37,45134,14.25,73124.8,-3.27,-3.95,-3.95,0,*51
1491429716.57,45135,14.31,73132.5,-3.27,-3.95,-4.05,0,*5E
1491429717.77,45136,14.25,73132.5,-3.27,-3.95,-4.05,0,*5D
1491429718.97,45137,14.31,73138.3,-3.27,-3.95,-3.95,0,*52
1491429720.17,45138,14.31,73132.5,-3.27,-3.95,-3.95,0,*5D
1491429721.37,45139,14.31,73138.5,-3.27,-3.95,-4.05,0,*52
1491429722.56,45140,14.31,73132.3,-3.27,-4.09,-3.95,0,*50
1491429723.78,45141,14.31,73130.5,-3.29,-4.05,-3.91,0,*57
1491429725.01,45142,14.31,73130.8,-3.29,-3.95,-3.95,0,*5E
1491429726.21,45143,14.25,73134.3,-3.27,-3.95,-3.95,0,*51
1491429727.41,45144,14.31,73136.3,-3.27,-3.91,-4.05,0,*5C
1491429728.61,45145,14.31,73134.3,-3.27,-4.05,-3.95,0,*59
1491429729.8,45146,14.31,73138.3,-3.27,-4.05,-3.95,0,*5A
1491429731.0,45147,14.31,73134.8,-3.27,-3.95,-3.95,0,*55
1491429732.28,45148,14.25,73138.5,-3.25,-4.01,-4.01,0,*58
1491429733.47,45149,14.31,73138.0,-3.27,-4.05,-4.05,0,*5B
1491429734.69,45150,14.31,73134.5,-3.29,-4.05,-4.09,0,*51
1491429735.89,45151,14.25,73124.3,-3.27,-4.09,-3.95,0,*50
1491429737.08,45152,14.31,73128.3,-3.27,-4.09,-4.09,0,*51
1491429738.28,45153,14.31,73130.0,-3.27,-4.05,-4.05,0,*50
1491429739.5,45154,14.25,73134.0,-3.29,-4.05,-4.05,0,*59
1491429740.72,45155,14.31,73138.3,-3.29,-4.09,-3.95,0,*5A
1491429741.91,45156,14.31,73144.0,-3.27,-4.05,-4.05,0,*55
1491429743.11,45157,14.31,73140.0,-3.27,-4.05,-4.05,0,*54
1491429744.3,45158,14.31,73136.3,-3.27,-4.05,-3.95,0,*55
1491429745.5,45159,14.31,73136.3,-3.27,-3.91,-3.91,0,*5A
1491429746.73,45160,14.25,73134.8,-3.29,-4.05,-3.95,0,*50
1491429747.92,45161,14.25,73130.5,-3.27,-4.05,-4.05,0,*51
1491429749.12,45162,14.25,73138.3,-3.27,-3.95,-3.95,0,*52
1491429750.34,45163,14.25,73138.0,-3.29,-3.95,-3.95,0,*5D
1491429751.57,45164,14.25,73136.5,-3.29,-3.95,-3.91,0,*5E
1491429752.77,45165,14.31,73134.3,-3.27,-4.05,-3.91,0,*5F
1491429753.97,45166,14.31,73136.3,-3.27,-3.95,-3.95,0,*56
1491429755.23,45167,14.31,73140.3,-3.25,-3.91,-4.01,0,*5B
1491429756.43,45168,14.25,73142.3,-3.27,-3.95,-3.91,0,*5C
1491429757.65,45169,14.31,73144.0,-3.29,-3.95,-3.95,0,*57
1491429758.85,45170,14.25,73132.8,-3.27,-3.95,-3.95,0,*51
1491429760.05,45171,14.25,73128.8,-3.27,-4.09,-3.95,0,*52
1491429761.24,45172,14.31,73128.8,-3.27,-4.05,-4.05,0,*53
1491429762.44,45173,14.25,73136.0,-3.27,-4.05,-4.05,0,*52
1491429763.63,45174,14.31,73134.5,-3.27,-4.05,-3.95,0,*5B
1491429764.85,45175,14.25,73134.8,-3.29,-4.05,-4.05,0,*5A
1491429766.07,45176,14.25,73138.3,-3.29,-4.05,-4.05,0,*59
1491429767.27,45177,14.25,73136.8,-3.27,-4.05,-4.05,0,*56
1491429768.47,45178,14.31,73140.0,-3.27,-3.95,-4.05,0,*57
1491429769.69,45179,14.31,73140.0,-3.29,-3.95,-4.05,0,*58
1491429770.95,45180,14.31,73138.5,-3.25,-3.91,-4.01,0,*52
1491429772.2,45181,14.25,73138.3,-3.25,-4.01,-3.91,0,*53
1491429773.4,45182,14.25,73138.0,-3.27,-3.95,-3.95,0,*5C
1491429774.6,45183,14.31,73140.5,-3.27,-4.05,-3.95,0,*53
1491429775.79,45184,14.25,73142.0,-3.27,-4.05,-3.95,0,*54
1491429777.02,45185,14.25,73146.3,-3.29,-3.95,-3.95,0,*55
1491429778.24,45186,14.31,73146.0,-3.29,-3.95,-3.95,0,*56
1491429779.44,45187,14.25,73136.8,-3.27,-4.09,-4.05,0,*55
1491429780.66,45188,14.25,73134.3,-3.29,-4.09,-4.05,0,*54
1491429781.85,45189,14.25,73132.3,-3.27,-4.09,-4.05,0,*5B
1491429783.04,45190,14.25,73128.3,-3.27,-4.09,-4.09,0,*5F
1491429784.27,45191,14.31,73134.3,-3.29,-4.09,-4.05,0,*5C
1491429785.46,45192,14.25,73132.8,-3.27,-4.05,-4.05,0,*5D
1491429786.65,45193,14.31,73136.3,-3.27,-4.05,-3.95,0,*52
1491429787.88,45194,14.25,73130.8,-3.29,-4.05,-3.95,0,*5B
1491429789.07,45195,14.25,73126.3,-3.27,-4.05,-3.91,0,*50
1491429790.35,45196,14.25,73122.8,-3.25,-4.01,-4.01,0,*5B
1491429791.54,45197,14.31,73132.3,-3.27,-4.05,-3.95,0,*56
1491429792.74,45198,14.25,73144.5,-3.27,-4.05,-3.95,0,*59
1491429794.02,45199,14.25,73142.0,-3.25,-4.01,-4.01,0,*54
1491429795.22,45200,14.31,73134.3,-3.27,-3.95,-4.05,0,*5B
1491429796.44,45201,14.25,73128.8,-3.29,-4.05,-4.05,0,*5A
1491429797.66,45202,14.25,73128.8,-3.29,-4.05,-4.05,0,*59
1491429798.85,45203,14.25,73128.8,-3.27,-4.05,-3.95,0,*58
1491429800.05,45204,14.31,73134.5,-3.27,-3.95,-3.95,0,*51
1491429801.25,45205,14.25,73126.5,-3.27,-3.95,-3.95,0,*50
1491429802.48,45206,14.25,73128.8,-3.29,-3.91,-4.05,0,*57
1491429803.67,45207,14.25,73134.8,-3.27,-4.05,-3.95,0,*5C
1491429804.89,45208,14.25,73130.0,-3.29,-4.05,-3.95,0,*5D
1491429806.09,45209,14.25,73130.0,-3.27,-4.05,-4.05,0,*5C
1491429807.28,45210,14.25,73130.3,-3.27,-4.05,-4.05,0,*54
1491429808.51,45211,14.25,73124.8,-3.29,-4.05,-4.05,0,*5B
1491429809.73,45212,14.25,73130.5,-3.29,-4.05,-4.05,0,*58
1491429810.92,45213,14.25,73128.0,-3.27,-4.09,-4.09,0,*57
1491429812.14,45214,14.25,73130.0,-3.29,-4.05,-4.05,0,*5E
1491429813.34,45215,14.25,73134.8,-3.27,-4.09,-4.09,0,*51
1491429814.56,45216,14.25,73134.8,-3.29,-4.05,-4.05,0,*5C
1491429815.76,45217,14.25,73132.8,-3.27,-3.95,-4.05,0,*5D
1491429816.95,45218,14.25,73134.5,-3.27,-4.05,-3.95,0,*52
1491429818.17,45219,14.25,73136.3,-3.29,-4.05,-3.95,0,*5D
1491429819.37,45220,14.31,73140.8,-3.27,-4.05,-4.05,0,*57
1491429820.56,45221,14.25,73138.0,-3.27,-4.05,-4.05,0,*56
1491429821.76,45222,14.25,73134.5,-3.27,-4.09,-4.05,0,*59
1491429822.98,45223,14.25,73130.3,-3.29,-4.09,-4.05,0,*56
1491429824.17,45224,14.25,73128.8,-3.27,-4.09,-4.09,0,*53
1491429825.39,45225,14.25,73132.0,-3.29,-4.09,-4.09,0,*5C
1491429826.61,45226,14.25,73132.5,-3.29,-4.09,-4.05,0,*53
1491429827.83,45227,14.25,73134.0,-3.29,-4.05,-4.09,0,*52
1491429829.03,45228,14.25,73132.5,-3.27,-4.09,-3.95,0,*5D
1491429830.22,45229,14.25,73134.0,-3.27,-4.05,-4.05,0,*5E
1491429831.44,45230,14.25,73136.0,-3.29,-4.09,-3.95,0,*5A
1491429832.66,45231,14.25,73136.5,-3.29,-4.05,-4.05,0,*59
1491429833.86,45232,14.25,73132.0,-3.27,-3.95,-3.95,0,*54
1491429835.08,45233,14.25,73132.3,-3.29,-4.05,-3.95,0,*55
1491429836.3,45234,14.25,73132.0,-3.29,-4.05,-3.95,0,*52
1491429837.52,45235,14.25,73132.3,-3.29,-4.05,-4.05,0,*5D
1491429838.72,45236,14.25,73130.3,-3.27,-4.05,-3.95,0,*5E
1491429839.91,45237,14.25,73134.5,-3.27,-4.05,-4.05,0,*51
1491429841.13,45238,14.25,73136.0,-3.29,-4.05,-4.05,0,*50
1491429842.33,45239,14.25,73142.8,-3.27,-4.05,-4.05,0,*5F
1491429843.55,45240,14.25,73138.0,-3.29,-4.05,-4.05,0,*5F
1491429844.74,45241,14.25,73130.0,-3.27,-4.09,-4.09,0,*50
1491429845.94,45242,14.25,73130.8,-3.27,-4.09,-4.09,0,*53
1491429847.16,45243,14.25,73130.8,-3.29,-4.05,-4.09,0,*50
1491429848.38,45244,14.31,73132.5,-3.29,-4.09,-4.09,0,*5B
1491429849.57,45245,14.25,73134.3,-3.27,-4.09,-4.05,0,*58
1491429850.79,45246,14.25,73136.0,-3.29,-4.09,-4.09,0,*59
1491429852.01,45247,14.25,73138.3,-3.29,-4.09,-4.09,0,*58
1491429853.21,45248,14.25,73136.0,-3.27,-4.09,-4.05,0,*55
1491429854.43,45249,14.25,73134.0,-3.29,-4.09,-4.05,0,*5A
1491429855.65,45250,14.25,73136.3,-3.29,-4.05,-4.09,0,*52
1491429856.84,45251,14.25,73142.8,-3.27,-4.05,-4.05,0,*51
1491429858.06,45252,14.25,73138.5,-3.29,-4.05,-4.05,0,*5C
1491429859.26,45253,14.25,73134.0,-3.27,-4.09,-4.05,0,*5F
1491429860.48,45254,14.25,73130.3,-3.29,-4.09,-4.05,0,*56
1491429861.7,45255,14.25,73128.3,-3.29,-4.09,-4.09,0,*5B
1491429862.92,45256,14.25,73122.8,-3.29,-4.09,-4.09,0,*58
1491429864.14,45257,14.25,73116.8,-3.29,-4.13,-4.09,0,*52
1491429865.36,45258,14.25,73116.3,-3.29,-4.13,-4.09,0,*5D
1491429866.58,45259,14.25,73118.8,-3.29,-4.13,-4.05,0,*50
1491429867.8,45260,14.25,73116.8,-3.29,-4.09,-4.05,0,*51
1491429869.02,45261,14.25,73114.5,-3.29,-4.09,-4.09,0,*5C
1491429870.24,45262,14.25,73112.8,-3.29,-4.09,-4.09,0,*5F
1491429871.46,45263,14.25,73108.0,-3.29,-4.09,-4.09,0,*5E
1491429872.68,45264,14.25,73116.5,-3.29,-4.09,-4.09,0,*59
1491429873.9,45265,14.25,73116.0,-3.29,-4.09,-4.09,0,*58
1491429875.12,45266,14.25,73116.5,-3.29,-4.09,-4.09,0,*5B
1491429876.35,45267,14.31,73130.3,-3.29,-4.09,-4.09,0,*5A
1491429877.57,45268,14.25,73134.5,-3.29,-4.09,-4.13,0,*5E
1491429878.79,45269,14.25,73128.5,-3.29,-4.09,-4.13,0,*5F
1491429879.99,45270,14.25,73128.5,-3.27,-4.09,-4.13,0,*59
1491429881.21,45271,14.25,73128.5,-3.29,-4.05,-4.09,0,*51
1491429882.43,45272,14.25,73124.5,-3.29,-4.09,-4.09,0,*5E
1491429883.66,45273,14.25,73120.3,-3.33,-4.13,-4.13,0,*54
1491429884.88,45274,14.25,73122.5,-3.33,-4.13,-4.09,0,*58
1491429886.11,45275,14.25,73126.5,-3.33,-4.09,-4.09,0,*52
1491429887.33,45276,14.25,73126.5,-3.33,-4.13,-4.13,0,*51
1491429888.56,45277,14.25,73122.8,-3.33,-4.13,-4.13,0,*50
1491429889.78,45278,14.25,73126.3,-3.29,-4.09,-4.05,0,*58
1491429891.0,45279,14.25,73124.3,-3.29,-4.09,-4.05,0,*59
1491429892.22,45280,14.25,73122.8,-3.29,-4.05,-4.05,0,*53
1491429893.45,45281,14.31,73128.0,-3.33,-4.13,-4.09,0,*52
1491429894.67,45282,14.31,73130.3,-3.33,-4.13,-4.09,0,*51
1491429895.9,45283,14.25,73130.3,-3.33,-4.09,-4.09,0,*5B
1491429897.12,45284,14.25,73130.3,-3.33,-4.09,-4.13,0,*57
1491429898.34,45285,14.25,73128.3,-3.29,-4.09,-4.05,0,*5A
1491429899.56,45286,14.25,73126.8,-3.29,-4.09,-4.05,0,*59
1491429900.79,45287,14.25,73124.8,-3.29,-4.05,-4.09,0,*58
1491429902.01,45288,14.25,73122.3,-3.29,-4.05,-4.09,0,*57
1491429903.23,45289,14.25,73118.5,-3.29,-4.05,-4.05,0,*5A
1491429904.45,45290,14.25,73120.5,-3.33,-4.09,-4.13,0,*52
1491429905.68,45291,14.25,73126.0,-3.33,-4.13,-4.09,0,*53
1491429906.9,45292,14.25,73118.0,-3.33,-4.13,-4.09,0,*50
1491429908.13,45293,14.25,73122.8,-3.33,-4.09,-4.13,0,*51
1491429909.35,45294,14.25,73126.5,-3.29,-4.09,-4.05,0,*5A
1491429910.58,45295,14.31,73134.5,-3.33,-4.09,-4.13,0,*57
1491429911.8,45296,14.25,73138.0,-3.33,-4.13,-4.09,0,*54
1491429913.02,45297,14.25,73138.8,-3.29,-4.05,-4.09,0,*59
1491429914.24,45298,14.25,73134.5,-3.29,-4.09,-4.09,0,*5A
1491429915.47,45299,14.25,73136.8,-3.29,-4.09,-4.09,0,*5B
1491429916.69,45300,14.25,73134.8,-3.33,-4.13,-4.13,0,*51
1491429917.89,45301,14.25,73128.3,-3.35,-4.17,-4.13,0,*52
1491429919.12,45302,14.25,73130.0,-3.33,-4.17,-4.13,0,*57
1491429920.34,45303,14.25,73124.8,-3.33,-4.17,-4.17,0,*52
1491429921.56,45304,14.31,73126.3,-3.29,-4.13,-4.13,0,*5E
1491429922.79,45305,14.31,73130.5,-3.33,-4.17,-4.25,0,*55
1491429924.02,45306,14.25,73124.3,-3.33,-4.25,-4.25,0,*57
1491429925.25,45307,14.25,73122.5,-3.33,-4.37,-4.25,0,*55
1491429926.47,45308,14.25,73116.3,-3.33,-4.37,-4.37,0,*59
1491429927.68,45309,14.25,73114.0,-3.35,-4.29,-4.29,0,*5E
1491429928.91,45310,14.25,73116.5,-3.33,-4.29,-4.37,0,*5F
1491429930.1,45311,14.31,73116.5,-3.35,-4.29,-4.17,0,*5A
1491429931.3,45312,14.25,73114.0,-3.35,-4.25,-4.17,0,*55
1491429932.53,45313,14.25,73114.5,-3.33,-4.25,-4.17,0,*52
1491429933.75,45314,14.25,73116.5,-3.33,-4.17,-4.17,0,*54
1491429934.97,45315,14.25,73116.8,-3.33,-4.17,-4.17,0,*55
1491429936.19,45316,14.25,73118.8,-3.33,-4.17,-4.17,0,*56
1491429937.41,45317,14.25,73118.0,-3.33,-4.17,-4.17,0,*57
1491429938.61,45318,14.31,73114.8,-3.35,-4.13,-4.13,0,*5E
1491429939.84,45319,14.25,73112.5,-3.33,-4.13,-4.09,0,*52
1491429941.04,45320,14.25,73124.5,-3.35,-4.13,-4.09,0,*5E
1491429942.24,45321,14.25,73120.3,-3.35,-4.13,-4.09,0,*5F
1491429943.47,45322,14.25,73124.8,-3.33,-4.13,-4.13,0,*51
1491429944.67,45323,14.25,73124.0,-3.35,-4.13,-4.13,0,*56
1491429945.9,45324,14.25,73120.5,-3.33,-4.09,-4.13,0,*5C
1491429947.12,45325,14.25,73122.0,-3.33,-4.09,-4.09,0,*56
1491429948.34,45326,14.25,73116.8,-3.33,-4.09,-4.09,0,*55
1491429949.55,45327,14.25,73118.5,-3.35,-4.09,-4.13,0,*59
1491429950.75,45328,14.25,73122.5,-3.35,-4.13,-4.09,0,*56
1491429951.95,45329,14.25,73122.8,-3.35,-4.09,-4.13,0,*57
1491429953.15,45330,14.25,73124.3,-3.35,-4.13,-4.09,0,*5F
1491429954.35,45331,14.25,73124.8,-3.35,-4.13,-4.13,0,*55
1491429955.58,45332,14.25,73126.5,-3.33,-4.09,-4.09,0,*50
1491429956.8,45333,14.25,73124.5,-3.33,-4.09,-4.09,0,*51
1491429958.03,45334,14.25,73124.3,-3.33,-4.13,-4.09,0,*5D
1491429959.25,45335,14.25,73120.5,-3.33,-4.09,-4.13,0,*5C
1491429960.48,45336,14.25,73118.3,-3.33,-4.13,-4.09,0,*5F
1491429961.68,45337,14.31,73124.0,-3.35,-4.13,-4.13,0,*53
1491429962.89,45338,14.25,73122.3,-3.35,-4.13,-4.13,0,*5C
1491429964.09,45339,14.25,73124.8,-3.35,-4.13,-4.13,0,*5D
1491429965.32,45340,14.25,73124.5,-3.33,-4.09,-4.13,0,*5E
1491429966.52,45341,14.25,73122.3,-3.35,-4.13,-4.13,0,*52
1491429967.75,45342,14.25,73126.3,-3.33,-4.13,-4.13,0,*57
1491429968.97,45343,14.25,73126.0,-3.37,-4.17,-4.17,0,*52
1491429970.17,45344,14.25,73122.8,-3.35,-4.09,-4.13,0,*5C
1491429971.37,45345,14.25,73124.8,-3.35,-4.13,-4.09,0,*5D
1491429972.57,45346,14.25,73120.8,-3.35,-4.13,-4.13,0,*55
1491429973.77,45347,14.25,73120.5,-3.35,-4.13,-4.09,0,*5F
1491429974.98,45348,14.25,73126.3,-3.35,-4.09,-4.13,0,*50
1491429976.18,45349,14.25,73122.8,-3.35,-4.09,-4.09,0,*5A
1491429977.4,45350,14.25,73122.8,-3.33,-4.13,-4.13,0,*54
1491429978.63,45351,14.25,73120.3,-3.35,-4.09,-4.01,0,*5B
1491429979.86,45352,14.25,73124.8,-3.33,-4.13,-4.13,0,*56
1491429981.08,45353,14.25,73128.8,-3.33,-4.09,-4.09,0,*57
1491429982.31,45354,14.25,73128.5,-3.33,-4.13,-4.13,0,*50
1491429983.51,45355,14.25,73130.5,-3.35,-4.13,-4.09,0,*5C
1491429984.71,45356,14.25,73126.8,-3.35,-4.13,-4.09,0,*5F
1491429985.91,45357,14.25,73122.8,-3.35,-4.13,-4.09,0,*5E
1491429987.11,45358,14.25,73126.5,-3.35,-4.13,-4.13,0,*5A
1491429988.32,45359,14.31,73126.3,-3.35,-4.13,-4.13,0,*5B
1491429989.52,45360,14.25,73120.5,-3.35,-4.09,-4.13,0,*5A
1491429990.74,45361,14.25,73126.0,-3.33,-4.09,-4.09,0,*56
1491429991.94,45362,14.25,73126.5,-3.35,-4.09,-4.09,0,*53
1491429993.14,45363,14.25,73128.3,-3.35,-4.09,-4.09,0,*52
1491429994.34,45364,14.25,73134.5,-3.35,-4.13,-4.09,0,*5E
1491429995.55,45365,14.25,73142.3,-3.35,-4.13,-4.13,0,*54
1491429996.75,45366,14.25,73136.5,-3.35,-4.09,-4.09,0,*57
1491429997.97,45367,14.25,73134.3,-3.33,-4.13,-4.13,0,*50
1491429999.18,45368,14.25,73134.5,-3.35,-4.13,-4.13,0,*59
1491430000.38,45369,14.25,73132.0,-3.35,-4.13,-4.13,0,*58
1491430001.58,45370,14.25,73128.0,-3.35,-4.13,-4.09,0,*5B
1491430002.78,45371,14.25,73128.5,-3.35,-4.13,-4.13,0,*51
1491430003.98,45372,14.25,73130.3,-3.35,-4.13,-4.09,0,*59
1491430005.18,45373,14.25,73134.5,-3.35,-4.09,-4.09,0,*53
1491430006.38,45374,14.25,73132.5,-3.35,-4.09,-4.09,0,*54
1491430007.59,45375,14.25,73136.0,-3.35,-4.13,-4.13,0,*55
1491430008.79,45376,14.25,73130.8,-3.35,-4.09,-4.13,0,*5D
1491430009.99,45377,14.25,73128.8,-3.35,-4.13,-4.09,0,*5C
1491430011.19,45378,14.31,73132.8,-3.35,-4.09,-4.13,0,*53
1491430012.39,45379,14.25,73126.3,-3.35,-4.09,-4.09,0,*59
1491430013.59,45380,14.25,73124.8,-3.35,-4.13,-4.09,0,*54
1491430014.79,45381,14.25,73130.3,-3.35,-4.09,-4.09,0,*5E
1491430016.02,45382,14.25,73130.3,-3.33,-4.13,-4.13,0,*5B
1491430017.22,45383,14.25,73128.5,-3.35,-4.13,-4.09,0,*57
1491430018.42,45384,14.25,73126.0,-3.35,-4.13,-4.13,0,*5B
1491430019.63,45385,14.25,73122.8,-3.35,-4.13,-4.13,0,*5A
1491430020.83,45386,14.25,73120.0,-3.35,-4.13,-4.13,0,*59
1491430022.06,45387,14.25,73116.8,-3.33,-4.13,-4.13,0,*5E
1491430023.26,45388,14.25,73114.0,-3.35,-4.13,-4.13,0,*57
1491430024.46,45389,14.25,73112.0,-3.35,-4.13,-4.09,0,*5D
1491430025.66,45390,14.25,73116.5,-3.35,-4.13,-4.13,0,*5E
1491430026.86,45391,14.25,73114.5,-3.35,-4.13,-4.09,0,*54
1491430028.07,45392,14.25,73118.8,-3.35,-4.13,-4.09,0,*57
1491430029.27,45393,14.25,73122.0,-3.35,-4.09,-4.09,0,*5D
1491430030.49,45394,14.25,73122.3,-3.33,-4.13,-4.13,0,*5C
1491430031.7,45395,14.25,73124.3,-3.35,-4.13,-4.13,0,*5B
1491430032.9,45396,14.25,73128.5,-3.35,-4.13,-4.09,0,*53
1491430034.1,45397,14.25,73124.0,-3.35,-4.13,-4.09,0,*52
1491430035.3,45398,14.25,73128.8,-3.35,-4.13,-4.09,0,*5D
1491430036.52,45399,14.25,73128.3,-3.37,-4.17,-4.17,0,*55
1491430037.74,45400,14.25,73124.3,-3.37,-4.13,-4.13,0,*52
1491430038.96,45401,14.25,73124.8,-3.37,-4.17,-4.17,0,*53
1491430040.16,45402,14.31,73128.8,-3.35,-4.09,-4.09,0,*52
1491430041.37,45403,14.25,73130.5,-3.35,-4.09,-4.13,0,*58
1491430042.59,45404,14.31,73134.8,-3.33,-4.09,-4.09,0,*52
1491430043.79,45405,14.25,73124.8,-3.35,-4.09,-4.09,0,*55
1491430044.99,45406,14.25,73126.8,-3.35,-4.13,-4.09,0,*5D
1491430046.19,45407,14.25,73126.5,-3.35,-4.09,-4.09,0,*57
1491430047.39,45408,14.25,73128.8,-3.35,-4.09,-4.13,0,*53
1491430048.59,45409,14.25,73128.8,-3.35,-4.13,-4.09,0,*52
1491430049.79,45410,14.25,73128.8,-3.35,-4.13,-4.09,0,*5A
1491430051.0,45411,14.25,73132.5,-3.35,-4.13,-4.09,0,*5B
1491430052.2,45412,14.25,73130.5,-3.35,-4.09,-4.09,0,*53
1491430053.4,45413,14.25,73130.5,-3.35,-4.13,-4.09,0,*59
1491430054.6,45414,14.25,73130.3,-3.35,-4.13,-4.13,0,*55
1491430055.82,45415,14.25,73126.0,-3.37,-4.17,-4.17,0,*56
1491430057.05,45416,14.25,73126.8,-3.37,-4.17,-4.13,0,*51
1491430058.27,45417,14.25,73124.5,-3.37,-4.17,-4.13,0,*50
1491430059.49,45418,14.25,73130.0,-3.37,-4.17,-4.17,0,*5B
1491430060.69,45419,14.25,73128.3,-3.35,-4.13,-4.13,0,*58
1491430061.89,45420,14.25,73126.3,-3.35,-4.09,-4.09,0,*52
1491430063.1,45421,14.25,73126.3,-3.35,-4.09,-4.13,0,*58
1491430064.3,45422,14.25,73130.0,-3.35,-4.13,-4.09,0,*5B
1491430065.53,45423,14.25,73128.3,-3.35,-4.01,-4.13,0,*52
1491430066.76,45424,14.25,73122.0,-3.35,-4.09,-4.01,0,*5E
1491430067.98,45425,14.25,73122.5,-3.33,-4.13,-4.09,0,*5A
1491430069.19,45426,14.25,73120.5,-3.35,-4.13,-4.13,0,*54
1491430070.39,45427,14.25,73126.5,-3.35,-4.13,-4.13,0,*55
1491430071.59,45428,14.25,73130.0,-3.35,-4.13,-4.09,0,*51
1491430072.79,45429,14.25,73132.0,-3.35,-4.13,-4.09,0,*50
1491430074.02,45430,14.25,73128.3,-3.33,-4.13,-4.13,0,*55
1491430075.22,45431,14.25,73124.0,-3.35,-4.13,-4.13,0,*52
1491430076.44,45432,14.25,73124.8,-3.37,-4.17,-4.17,0,*53
1491430077.66,45433,14.25,73128.8,-3.37,-4.17,-4.17,0,*52
1491430078.88,45434,14.25,73122.5,-3.37,-4.13,-4.17,0,*51
1491430080.11,45435,14.25,73120.5,-3.37,-4.13,-4.13,0,*54
1491430081.33,45436,14.25,73120.8,-3.37,-4.13,-4.17,0,*53
1491430082.55,45437,14.25,73120.3,-3.37,-4.17,-4.17,0,*56
1491430083.77,45438,14.25,73122.0,-3.37,-4.17,-4.13,0,*5D
1491430084.99,45439,14.25,73122.3,-3.37,-4.17,-4.17,0,*58
1491430086.2,45440,14.25,73126.0,-3.35,-4.13,-4.13,0,*54
1491430087.4,45441,14.25,73130.5,-3.35,-4.13,-4.09,0,*5E
1491430088.62,45442,14.25,73134.5,-3.37,-4.17,-4.17,0,*54
1491430089.84,45443,14.25,73124.8,-3.37,-4.17,-4.13,0,*51
1491430091.04,45444,14.25,73126.8,-3.35,-4.13,-4.09,0,*5B
1491430092.23,45445,14.25,73128.8,-3.39,-4.17,-4.17,0,*5D
1491430093.46,45446,14.25,73134.0,-3.37,-4.17,-4.13,0,*54
1491430094.68,45447,14.25,73130.8,-3.37,-4.17,-4.17,0,*51
1491430095.91,45448,14.25,73130.8,-3.37,-4.13,-4.13,0,*5E
1491430097.13,45449,14.25,73132.3,-3.37,-4.17,-4.17,0,*5F
1491430098.35,45450,14.25,73130.8,-3.37,-4.17,-4.17,0,*57
1491430099.57,45451,14.25,73126.0,-3.37,-4.17,-4.17,0,*56
1491430100.79,45452,14.25,73124.8,-3.37,-4.17,-4.17,0,*55
1491430102.01,45453,14.25,73128.0,-3.37,-4.17,-4.17,0,*54